TimeEST,TemperatureF,Dew PointF,Humidity,Sea Level PressureIn,VisibilityMPH,Wind Direction,Wind SpeedMPH,Gust SpeedMPH,PrecipitationIn,Events,Conditions,WindDirDegrees,DateUTC
12:14 AM,31.3,28.8,90,29.93,10.0,North,8.1,-,N/A,,Overcast,10,2013-03-01 05:14:00
12:35 AM,30.0,27.7,91,29.93,10.0,NE,8.1,-,N/A,,Overcast,40,2013-03-01 05:35:00
12:55 AM,29.8,27.3,90,29.93,10.0,NE,9.2,-,N/A,,Overcast,40,2013-03-01 05:55:00
1:14 AM,29.8,27.1,90,29.93,10.0,NE,9.2,-,N/A,,Overcast,40,2013-03-01 06:14:00
1:35 AM,29.8,27.0,89,29.94,10.0,North,6.9,-,N/A,,Overcast,10,2013-03-01 06:35:00
1:54 AM,29.5,26.8,90,29.95,10.0,NNE,8.1,-,N/A,,Overcast,20,2013-03-01 06:54:00
2:14 AM,29.1,26.1,88,29.95,10.0,North,8.1,-,N/A,,Overcast,10,2013-03-01 07:14:00
2:35 AM,28.9,25.5,87,29.94,10.0,North,9.2,-,N/A,,Overcast,360,2013-03-01 07:35:00
2:54 AM,28.8,25.2,86,29.94,10.0,North,8.1,-,N/A,,Overcast,10,2013-03-01 07:54:00
3:15 AM,28.8,24.3,83,29.94,10.0,North,5.8,-,N/A,,Overcast,10,2013-03-01 08:15:00
3:34 AM,28.6,24.1,83,29.94,10.0,NNE,8.1,-,N/A,,Overcast,20,2013-03-01 08:34:00
3:55 AM,28.6,24.3,84,29.94,10.0,NNE,9.2,-,N/A,,Overcast,20,2013-03-01 08:55:00
4:14 AM,28.0,23.2,82,29.94,10.0,NNE,5.8,-,N/A,,Overcast,20,2013-03-01 09:14:00
4:55 AM,27.9,23.4,83,29.95,10.0,North,10.4,-,N/A,,Overcast,10,2013-03-01 09:55:00
5:14 AM,27.9,22.8,81,29.95,10.0,NNE,6.9,-,N/A,,Overcast,30,2013-03-01 10:14:00
5:35 AM,27.9,22.8,81,29.95,10.0,North,8.1,-,N/A,,Overcast,10,2013-03-01 10:35:00
5:54 AM,27.7,22.5,81,29.96,10.0,NNE,9.2,-,N/A,,Overcast,20,2013-03-01 10:54:00
6:14 AM,27.7,22.3,80,29.96,10.0,NNE,10.4,-,N/A,,Overcast,20,2013-03-01 11:14:00
6:35 AM,27.3,22.5,82,29.97,10.0,NNE,8.1,-,N/A,,Overcast,20,2013-03-01 11:35:00
6:54 AM,27.3,22.5,82,29.97,10.0,NNE,6.9,-,N/A,,Overcast,20,2013-03-01 11:54:00
7:15 AM,27.0,21.7,81,29.98,10.0,NNE,8.1,16.1,N/A,,Overcast,30,2013-03-01 12:15:00
7:35 AM,27.0,21.9,81,29.98,10.0,NNE,9.2,16.1,N/A,,Overcast,30,2013-03-01 12:35:00
7:54 AM,27.0,21.9,81,29.99,10.0,NNE,8.1,-,N/A,,Overcast,20,2013-03-01 12:54:00
8:15 AM,27.0,21.4,79,30.00,10.0,NNE,6.9,-,N/A,,Overcast,30,2013-03-01 13:15:00
8:34 AM,27.0,21.4,79,30.01,10.0,North,10.4,-,N/A,,Overcast,10,2013-03-01 13:34:00
8:55 AM,27.0,21.4,79,30.01,10.0,North,11.5,-,N/A,,Overcast,360,2013-03-01 13:55:00
9:15 AM,27.0,20.7,77,30.02,10.0,NNE,5.8,-,N/A,,Overcast,20,2013-03-01 14:15:00
9:34 AM,26.4,19.0,74,30.02,10.0,North,10.4,18.4,N/A,,Overcast,10,2013-03-01 14:34:00
9:55 AM,26.1,18.9,74,30.02,10.0,North,9.2,-,N/A,,Overcast,10,2013-03-01 14:55:00
10:15 AM,25.9,18.1,73,30.03,10.0,NNE,8.1,16.1,N/A,,Overcast,20,2013-03-01 15:15:00
10:34 AM,25.9,18.5,74,30.03,10.0,North,8.1,-,N/A,,Overcast,10,2013-03-01 15:34:00
11:14 AM,26.1,18.3,73,30.04,10.0,NNE,8.1,-,N/A,,Overcast,20,2013-03-01 16:14:00
11:35 AM,26.2,18.0,71,30.04,10.0,North,6.9,-,N/A,,Overcast,10,2013-03-01 16:35:00
11:55 AM,26.2,17.8,70,30.04,10.0,North,9.2,-,N/A,,Overcast,360,2013-03-01 16:55:00
12:14 PM,26.1,18.0,71,30.05,10.0,North,9.2,-,N/A,,Overcast,360,2013-03-01 17:14:00
12:35 PM,26.4,17.4,69,30.05,10.0,North,9.2,-,N/A,,Overcast,360,2013-03-01 17:35:00
12:54 PM,26.4,17.6,69,30.04,10.0,NNE,5.8,-,N/A,,Overcast,20,2013-03-01 17:54:00
1:14 PM,26.8,17.6,68,30.03,10.0,North,11.5,-,N/A,,Overcast,360,2013-03-01 18:14:00
1:35 PM,26.4,17.6,69,30.03,10.0,North,10.4,-,N/A,,Overcast,350,2013-03-01 18:35:00
2:15 PM,26.4,17.2,68,30.02,10.0,NNW,11.5,-,N/A,,Overcast,340,2013-03-01 19:15:00
2:35 PM,26.4,17.8,70,30.02,10.0,NNE,10.4,-,N/A,,Overcast,20,2013-03-01 19:35:00
2:54 PM,26.1,18.3,73,30.02,10.0,North,12.7,-,N/A,,Overcast,350,2013-03-01 19:54:00
3:15 PM,25.9,18.3,73,30.02,10.0,North,11.5,-,N/A,,Overcast,350,2013-03-01 20:15:00
3:35 PM,26.2,17.8,70,30.02,10.0,NNE,12.7,16.1,N/A,,Overcast,30,2013-03-01 20:35:00
3:54 PM,25.9,18.1,73,30.02,10.0,North,9.2,16.1,N/A,,Overcast,10,2013-03-01 20:54:00
4:15 PM,25.3,18.0,74,30.03,10.0,NNE,11.5,-,N/A,,Overcast,20,2013-03-01 21:15:00
4:34 PM,25.2,16.5,70,30.03,10.0,NNE,11.5,18.4,N/A,,Overcast,20,2013-03-01 21:34:00
5:15 PM,25.2,16.5,70,30.04,10.0,North,5.8,-,N/A,,Overcast,10,2013-03-01 22:15:00
5:34 PM,25.2,17.1,71,30.04,10.0,North,9.2,-,N/A,,Overcast,10,2013-03-01 22:34:00
5:55 PM,24.6,16.9,72,30.04,10.0,NNE,6.9,16.1,N/A,,Overcast,20,2013-03-01 22:55:00
6:14 PM,24.6,17.2,74,30.04,10.0,NNE,9.2,-,N/A,,Overcast,30,2013-03-01 23:14:00
6:35 PM,24.4,17.2,74,30.05,10.0,North,10.4,-,N/A,,Overcast,10,2013-03-01 23:35:00
6:54 PM,24.6,17.8,75,30.05,10.0,NNE,9.2,-,N/A,,Overcast,20,2013-03-01 23:54:00
7:14 PM,24.6,17.2,74,30.05,10.0,NNE,9.2,16.1,N/A,,Overcast,30,2013-03-02 00:14:00
7:35 PM,24.6,17.6,75,30.06,10.0,North,3.5,-,N/A,,Overcast,10,2013-03-02 00:35:00
7:54 PM,24.6,17.8,75,30.06,10.0,North,5.8,-,N/A,,Overcast,360,2013-03-02 00:54:00
8:14 PM,24.6,18.0,76,30.07,10.0,NNE,5.8,-,N/A,,Overcast,20,2013-03-02 01:14:00
8:35 PM,24.6,18.0,76,30.07,10.0,North,5.8,-,N/A,,Overcast,10,2013-03-02 01:35:00
8:54 PM,24.8,17.8,75,30.07,10.0,North,6.9,-,N/A,,Overcast,10,2013-03-02 01:54:00
9:15 PM,25.2,18.0,74,30.08,10.0,North,9.2,-,N/A,,Overcast,10,2013-03-02 02:15:00
9:34 PM,25.2,18.0,74,30.08,10.0,NNE,5.8,-,N/A,,Overcast,20,2013-03-02 02:34:00
9:54 PM,25.2,17.4,72,30.08,10.0,North,6.9,-,N/A,,Overcast,10,2013-03-02 02:54:00
10:15 PM,25.2,17.2,72,30.08,10.0,North,5.8,-,N/A,,Overcast,360,2013-03-02 03:15:00
10:55 PM,25.2,17.1,71,30.07,10.0,NNE,3.5,-,N/A,,Overcast,20,2013-03-02 03:55:00
11:15 PM,25.2,17.6,73,30.06,10.0,North,3.5,-,N/A,,Overcast,10,2013-03-02 04:15:00
11:34 PM,24.6,18.0,76,30.06,10.0,North,3.5,-,N/A,,Overcast,360,2013-03-02 04:34:00
11:55 PM,24.6,18.3,77,30.05,10.0,NNW,5.8,-,N/A,,Overcast,330,2013-03-02 04:55:00